STARLINK-31833, 59733

Orbit data source: Space-Track

STARLINK-31833, 59733 is a payload satellite owned by SpaceX/Seattle (US) in LEO that was launched on Mon, 13 May 2024 UTC via an FALCON 9 launch vehicle from the Air Force Eastern Test Range (AFETR). Payload-class satellites include a variety of spacecraft equipped with specific instruments for various scientific and technological missions. These include communications satellites like Starlink; space stations such as the ISS; scientific satellites like the Hubble; Earth observation satellites from companies like Planet Labs, Umbra, and HawkEye 360; GPS; miniature CubeSats for education and research; and military/defense satellites.

Loading next visibility...
Identifier
59733, 2024-090D
Orbit
LEO
Country
Flag of USUS
Related business
Manufacturer
SpaceX/Seattle
Mission
Operational Commercial Communications
Bus & Motor
STARLINK V2M, Unknown motor
Mass
730 kg wet, ~700 kg dry
Launch date (UTC)
2024-05-13 (2 years ago)
Launch vehicle
FALCON 9
Launch site
Air Force Eastern Test Range (AFETR)
Object type
Payload
Rocket body
Debris
Shape & HBR
Box + 2 Pan, 17.7 m
Radar Cross Section
33.884 m², Large (>1 m²)

Expand to show TLE details & history
Last TLE update: 2 days ago

TLE from 2 days ago
0 STARLINK-31833
1 59733U 24090D   26171.44732948  .00002439  00000-0  98134-4 0  9997
2 59733  43.0006 323.3401 0001278 264.8310  95.2396 15.27572949119152
Epoch: 2026-06-20T10:44Z
TLE epoch observation values (Epoch: 2026-06-20T10:44:09.267Z)
Latitude
0.00001°
Longitude
-106.36032°
Altitude
482.926 km
Speed
7.626 km/s
True Right ascension
21h 33m 21s
True Declination
0° 00' 00"
Sunlit
Object was in full shadow at epoch
Visualization orbit readout
Latitude
Unknown
Longitude
Unknown
Altitude
Unknown
Speed
Unknown
Apparent Right ascension
Unknown
Apparent Declination
Unknown
Sunlit
N/A
Visualization observer readout
Local Sidereal Time
00:39:36
Azimuth
Unknown
Elevation
Unknown
Doppler factor
Unknown
Orbital elements
Apogee altitude
485.892 km
Perigee altitude
484.138 km
Semi-major axis
6,863.152 km
Eccentricity
0.00013
Inclination
43.0006°
RAAN
323.3401°
Arg. of periapsis
264.831°
True anomaly
95.25418°
Mean anomaly
95.2396°
Eccentric anomaly
95.24689°
Mean motion
3.81731 °/min
Orbital period
94.31 mins
BSTAR
0.000098134
Loading maneuver chart data...
Computing Atmospheric mass density...
Loading historical data...
Loading historical data...
Loading historical data...
Loading historical data...
Loading historical data...
Loading historical data...
Loading historical data...

Documentation

Showing up to 5 results
|